Year,Month,Day,Hour,Minute,Value (Times are PST for temperature in C)
2016,04,01,00,00,9.50
2016,04,01,00,01,9.40
2016,04,01,00,02,9.40
2016,04,01,00,03,9.40
2016,04,01,00,04,9.40
2016,04,01,00,05,9.40
2016,04,01,00,06,9.40
2016,04,01,00,07,9.40
2016,04,01,00,08,9.40
2016,04,01,00,09,9.30
2016,04,01,00,10,9.30
2016,04,01,00,11,9.30
2016,04,01,00,12,9.30
2016,04,01,00,13,9.30
2016,04,01,00,14,9.30
2016,04,01,00,15,9.30
2016,04,01,00,16,9.30
2016,04,01,00,17,9.30
2016,04,01,00,18,9.20
2016,04,01,00,19,9.20
2016,04,01,00,20,9.20
2016,04,01,00,21,9.20
2016,04,01,00,22,9.20
2016,04,01,00,23,9.20
2016,04,01,00,24,9.20
2016,04,01,00,25,9.20
2016,04,01,00,26,9.10
2016,04,01,00,27,9.10
2016,04,01,00,28,9.10
2016,04,01,00,29,9.10
2016,04,01,00,30,9.10
2016,04,01,00,31,9.10
2016,04,01,00,32,9.10
2016,04,01,00,33,9.10
2016,04,01,00,34,9.00
2016,04,01,00,35,9.00
2016,04,01,00,36,9.00
2016,04,01,00,37,9.00
2016,04,01,00,38,9.00
2016,04,01,00,39,9.00
2016,04,01,00,40,9.00
2016,04,01,00,41,8.90
2016,04,01,00,42,8.90
2016,04,01,00,43,8.90
2016,04,01,00,44,8.90
2016,04,01,00,45,8.90
2016,04,01,00,46,8.90
2016,04,01,00,47,8.90
2016,04,01,00,48,8.90
2016,04,01,00,49,8.90
2016,04,01,00,50,8.90
2016,04,01,00,51,8.90
2016,04,01,00,52,8.80
2016,04,01,00,53,8.80
2016,04,01,00,54,8.80
2016,04,01,00,55,8.80
2016,04,01,00,56,8.80
2016,04,01,00,57,8.80
2016,04,01,00,58,8.80
2016,04,01,00,59,8.80
2016,04,01,01,00,8.80
2016,04,01,01,01,8.70
2016,04,01,01,02,8.70
2016,04,01,01,03,8.70
2016,04,01,01,04,8.70
2016,04,01,01,05,8.70
2016,04,01,01,06,8.70
2016,04,01,01,07,8.70
2016,04,01,01,08,8.70
2016,04,01,01,09,8.60
2016,04,01,01,10,8.60
2016,04,01,01,11,8.60
2016,04,01,01,12,8.60
2016,04,01,01,13,8.60
2016,04,01,01,14,8.60
2016,04,01,01,15,8.60
2016,04,01,01,16,8.60
2016,04,01,01,17,8.60
2016,04,01,01,18,8.50
2016,04,01,01,19,8.50
2016,04,01,01,20,8.50
2016,04,01,01,21,8.50
2016,04,01,01,22,8.50
2016,04,01,01,23,8.40
2016,04,01,01,24,8.40
2016,04,01,01,25,8.40
2016,04,01,01,26,8.40
2016,04,01,01,27,8.40
2016,04,01,01,28,8.40
2016,04,01,01,29,8.30
2016,04,01,01,30,8.30
2016,04,01,01,31,8.30
2016,04,01,01,32,8.30
2016,04,01,01,33,8.30
2016,04,01,01,34,8.30
2016,04,01,01,35,8.30
2016,04,01,01,36,8.30
2016,04,01,01,37,8.30
2016,04,01,01,38,8.30
2016,04,01,01,39,8.30
2016,04,01,01,40,8.30
2016,04,01,01,41,8.30
2016,04,01,01,42,8.30
2016,04,01,01,43,8.20
2016,04,01,01,44,8.20
2016,04,01,01,45,8.20
2016,04,01,01,46,8.20
2016,04,01,01,47,8.20
2016,04,01,01,48,8.20
2016,04,01,01,49,8.20
2016,04,01,01,50,8.20
2016,04,01,01,51,8.20
2016,04,01,01,52,8.20
2016,04,01,01,53,8.10
2016,04,01,01,54,8.10
2016,04,01,01,55,8.10
2016,04,01,01,56,8.10
2016,04,01,01,57,8.10
2016,04,01,01,58,8.10
2016,04,01,01,59,8.10
2016,04,01,02,00,8.00
2016,04,01,02,01,8.00
2016,04,01,02,02,8.00
2016,04,01,02,03,8.00
2016,04,01,02,04,8.00
2016,04,01,02,05,8.00
2016,04,01,02,06,8.00
2016,04,01,02,07,8.10
2016,04,01,02,08,8.10
2016,04,01,02,09,8.10
2016,04,01,02,10,8.20
2016,04,01,02,11,8.20
2016,04,01,02,12,8.20
2016,04,01,02,13,8.20
2016,04,01,02,14,8.20
2016,04,01,02,15,8.20
2016,04,01,02,16,8.20
2016,04,01,02,17,8.10
2016,04,01,02,18,8.10
2016,04,01,02,19,8.10
2016,04,01,02,20,8.10
2016,04,01,02,21,8.10
2016,04,01,02,22,8.10
2016,04,01,02,23,8.10
2016,04,01,02,24,8.10
2016,04,01,02,25,8.10
2016,04,01,02,26,8.00
2016,04,01,02,27,8.00
2016,04,01,02,28,8.00
2016,04,01,02,29,8.00
2016,04,01,02,30,7.90
2016,04,01,02,31,7.90
2016,04,01,02,32,7.90
2016,04,01,02,33,7.90
2016,04,01,02,34,7.90
2016,04,01,02,35,7.80
2016,04,01,02,36,7.80
2016,04,01,02,37,7.80
2016,04,01,02,38,7.80
2016,04,01,02,39,7.80
2016,04,01,02,40,7.80
2016,04,01,02,41,7.70
2016,04,01,02,42,7.70
2016,04,01,02,43,7.70
2016,04,01,02,44,7.70
2016,04,01,02,45,7.70
2016,04,01,02,46,7.70
2016,04,01,02,47,7.60
2016,04,01,02,48,7.60
2016,04,01,02,49,7.60
2016,04,01,02,50,7.60
2016,04,01,02,51,7.60
2016,04,01,02,52,7.60
2016,04,01,02,53,7.60
2016,04,01,02,54,7.60
2016,04,01,02,55,7.60
2016,04,01,02,56,7.60
2016,04,01,02,57,7.60
2016,04,01,02,58,7.60
2016,04,01,02,59,7.60
2016,04,01,03,00,7.60
2016,04,01,03,01,7.60
2016,04,01,03,02,7.60
2016,04,01,03,03,7.50
2016,04,01,03,04,7.50
2016,04,01,03,05,7.50
2016,04,01,03,06,7.50
2016,04,01,03,07,7.50
2016,04,01,03,08,7.50
2016,04,01,03,09,7.50
2016,04,01,03,10,7.50
2016,04,01,03,11,7.40
2016,04,01,03,12,7.40
2016,04,01,03,13,7.40
2016,04,01,03,14,7.40
2016,04,01,03,15,7.40
2016,04,01,03,16,7.40
2016,04,01,03,17,7.40
2016,04,01,03,18,7.40
2016,04,01,03,19,7.40
2016,04,01,03,20,7.30
2016,04,01,03,21,7.30
2016,04,01,03,22,7.30
2016,04,01,03,23,7.30
2016,04,01,03,24,7.30
2016,04,01,03,25,7.30
2016,04,01,03,26,7.30
2016,04,01,03,27,7.20
2016,04,01,03,28,7.20
2016,04,01,03,29,7.20
2016,04,01,03,30,7.20
2016,04,01,03,31,7.20
2016,04,01,03,32,7.20
2016,04,01,03,33,7.20
2016,04,01,03,34,7.20
2016,04,01,03,35,7.20
2016,04,01,03,36,7.20
2016,04,01,03,37,7.20
2016,04,01,03,38,7.20
2016,04,01,03,39,7.20
2016,04,01,03,40,7.10
2016,04,01,03,41,7.10
2016,04,01,03,42,7.10
2016,04,01,03,43,7.10
2016,04,01,03,44,7.10
2016,04,01,03,45,7.10
2016,04,01,03,46,7.10
2016,04,01,03,47,7.10
2016,04,01,03,48,7.10
2016,04,01,03,49,7.10
2016,04,01,03,50,7.00
2016,04,01,03,51,7.00
2016,04,01,03,52,7.00
2016,04,01,03,53,7.00
2016,04,01,03,54,7.00
2016,04,01,03,55,6.90
2016,04,01,03,56,6.90
2016,04,01,03,57,6.90
2016,04,01,03,58,6.90
2016,04,01,03,59,6.90
2016,04,01,04,00,6.90
2016,04,01,04,01,6.90
2016,04,01,04,02,6.90
2016,04,01,04,03,6.90
2016,04,01,04,04,6.90
2016,04,01,04,05,6.80
2016,04,01,04,06,6.80
2016,04,01,04,07,6.80
2016,04,01,04,08,6.80
2016,04,01,04,09,6.80
2016,04,01,04,10,6.80
2016,04,01,04,11,6.80
2016,04,01,04,12,6.80
2016,04,01,04,13,6.80
2016,04,01,04,14,6.80
2016,04,01,04,15,6.80
2016,04,01,04,16,6.80
2016,04,01,04,17,6.80
2016,04,01,04,18,6.80
2016,04,01,04,19,6.80
2016,04,01,04,20,6.80
2016,04,01,04,21,6.80
2016,04,01,04,22,6.80
2016,04,01,04,23,6.80
2016,04,01,04,24,6.80
2016,04,01,04,25,6.80
2016,04,01,04,26,6.80
2016,04,01,04,27,6.80
2016,04,01,04,28,6.80
2016,04,01,04,29,6.80
2016,04,01,04,30,6.80
2016,04,01,04,31,6.80
2016,04,01,04,32,6.80
2016,04,01,04,33,6.80
2016,04,01,04,34,6.80
2016,04,01,04,35,6.80
2016,04,01,04,36,6.80
2016,04,01,04,37,6.80
2016,04,01,04,38,6.70
2016,04,01,04,39,6.70
2016,04,01,04,40,6.70
2016,04,01,04,41,6.70
2016,04,01,04,42,6.70
2016,04,01,04,43,6.70
2016,04,01,04,44,6.70
2016,04,01,04,45,6.70
2016,04,01,04,46,6.70
2016,04,01,04,47,6.60
2016,04,01,04,48,6.60
2016,04,01,04,49,6.60
2016,04,01,04,50,6.60
2016,04,01,04,51,6.60
2016,04,01,04,52,6.60
2016,04,01,04,53,6.60
2016,04,01,04,54,6.60
2016,04,01,04,55,6.60
2016,04,01,04,56,6.60
2016,04,01,04,57,6.60
2016,04,01,04,58,6.60
2016,04,01,04,59,6.60
2016,04,01,05,00,6.60
2016,04,01,05,01,6.70
2016,04,01,05,02,6.70
2016,04,01,05,03,6.70
2016,04,01,05,04,6.70
2016,04,01,05,05,6.70
2016,04,01,05,06,6.70
2016,04,01,05,07,6.70
2016,04,01,05,08,6.70
2016,04,01,05,09,6.70
2016,04,01,05,10,6.70
2016,04,01,05,11,6.70
2016,04,01,05,12,6.60
2016,04,01,05,13,6.60
2016,04,01,05,14,6.60
2016,04,01,05,15,6.60
2016,04,01,05,16,6.60
2016,04,01,05,17,6.60
2016,04,01,05,18,6.50
2016,04,01,05,19,6.50
2016,04,01,05,20,6.50
2016,04,01,05,21,6.50
2016,04,01,05,22,6.40
2016,04,01,05,23,6.40
2016,04,01,05,24,6.40
2016,04,01,05,25,6.40
2016,04,01,05,26,6.40
2016,04,01,05,27,6.40
2016,04,01,05,28,6.30
2016,04,01,05,29,6.30
2016,04,01,05,30,6.30
2016,04,01,05,31,6.30
2016,04,01,05,32,6.30
2016,04,01,05,33,6.30
2016,04,01,05,34,6.40
2016,04,01,05,35,6.40
2016,04,01,05,36,6.40
2016,04,01,05,37,6.40
2016,04,01,05,38,6.40
2016,04,01,05,39,6.40
2016,04,01,05,40,6.40
2016,04,01,05,41,6.40
2016,04,01,05,42,6.30
2016,04,01,05,43,6.30
2016,04,01,05,44,6.30
2016,04,01,05,45,6.30
2016,04,01,05,46,6.30
2016,04,01,05,47,6.30
2016,04,01,05,48,6.30
2016,04,01,05,49,6.30
2016,04,01,05,50,6.30
2016,04,01,05,51,6.30
2016,04,01,05,52,6.30
2016,04,01,05,53,6.30
2016,04,01,05,54,6.20
2016,04,01,05,55,6.20
2016,04,01,05,56,6.20
2016,04,01,05,57,6.20
2016,04,01,05,58,6.20
2016,04,01,05,59,6.20
2016,04,01,06,00,6.20
2016,04,01,06,01,6.20
2016,04,01,06,02,6.20
2016,04,01,06,03,6.20
2016,04,01,06,04,6.10
2016,04,01,06,05,6.10
2016,04,01,06,06,6.10
2016,04,01,06,07,6.10
2016,04,01,06,08,6.10
2016,04,01,06,09,6.10
2016,04,01,06,10,6.10
2016,04,01,06,11,6.10
2016,04,01,06,12,6.00
2016,04,01,06,13,6.00
2016,04,01,06,14,6.00
2016,04,01,06,15,6.00
2016,04,01,06,16,6.00
2016,04,01,06,17,6.00
2016,04,01,06,18,6.10
2016,04,01,06,19,6.10
2016,04,01,06,20,6.10
2016,04,01,06,21,6.10
2016,04,01,06,22,6.10
2016,04,01,06,23,6.10
2016,04,01,06,24,6.10
2016,04,01,06,25,6.10
2016,04,01,06,26,6.10
2016,04,01,06,27,6.00
2016,04,01,06,28,6.00
2016,04,01,06,29,6.00
2016,04,01,06,30,6.00
2016,04,01,06,31,6.00
2016,04,01,06,32,5.90
2016,04,01,06,33,5.90
2016,04,01,06,34,5.90
2016,04,01,06,35,5.90
2016,04,01,06,36,5.90
2016,04,01,06,37,5.90
2016,04,01,06,38,5.90
2016,04,01,06,39,5.90
2016,04,01,06,40,5.80
2016,04,01,06,41,5.80
2016,04,01,06,42,5.80
2016,04,01,06,43,5.80
2016,04,01,06,44,5.80
2016,04,01,06,45,5.80
2016,04,01,06,46,5.80
2016,04,01,06,47,5.80
2016,04,01,06,48,5.80
2016,04,01,06,49,5.80
2016,04,01,06,50,5.80
2016,04,01,06,51,5.80
2016,04,01,06,52,5.80
2016,04,01,06,53,5.80
2016,04,01,06,54,5.80
2016,04,01,06,55,5.80
2016,04,01,06,56,5.80
2016,04,01,06,57,5.80
2016,04,01,06,58,5.70
2016,04,01,06,59,5.70
2016,04,01,07,00,5.70
2016,04,01,07,01,5.70
2016,04,01,07,02,5.70
2016,04,01,07,03,5.70
2016,04,01,07,04,5.70
2016,04,01,07,05,5.70
2016,04,01,07,06,5.70
2016,04,01,07,07,5.70
2016,04,01,07,08,5.70
2016,04,01,07,09,5.70
2016,04,01,07,10,5.70
2016,04,01,07,11,5.70
2016,04,01,07,12,5.70
2016,04,01,07,13,5.70
2016,04,01,07,14,5.70
2016,04,01,07,15,5.70
2016,04,01,07,16,5.70
2016,04,01,07,17,5.70
2016,04,01,07,18,5.70
2016,04,01,07,19,5.70
2016,04,01,07,20,5.70
2016,04,01,07,21,5.70
2016,04,01,07,22,5.70
2016,04,01,07,23,5.70
2016,04,01,07,24,5.70
2016,04,01,07,25,5.70
2016,04,01,07,26,5.70
2016,04,01,07,27,5.70
2016,04,01,07,28,5.70
2016,04,01,07,29,5.70
2016,04,01,07,30,5.80
2016,04,01,07,31,5.80
2016,04,01,07,32,5.80
2016,04,01,07,33,5.80
2016,04,01,07,34,5.80
2016,04,01,07,35,5.80
2016,04,01,07,36,5.80
2016,04,01,07,37,5.80
2016,04,01,07,38,5.80
2016,04,01,07,39,5.80
2016,04,01,07,40,5.90
2016,04,01,07,41,5.90
2016,04,01,07,42,5.90
2016,04,01,07,43,5.90
2016,04,01,07,44,6.00
2016,04,01,07,45,6.00
2016,04,01,07,46,6.10
2016,04,01,07,47,6.10
2016,04,01,07,48,6.10
2016,04,01,07,49,6.10
2016,04,01,07,50,6.10
2016,04,01,07,51,6.20
2016,04,01,07,52,6.20
2016,04,01,07,53,6.20
2016,04,01,07,54,6.20
2016,04,01,07,55,6.20
2016,04,01,07,56,6.30
2016,04,01,07,57,6.30
2016,04,01,07,58,6.40
2016,04,01,07,59,6.40
2016,04,01,08,00,6.50
2016,04,01,08,01,6.50
2016,04,01,08,02,6.60
2016,04,01,08,03,6.60
2016,04,01,08,04,6.70
2016,04,01,08,05,6.70
2016,04,01,08,06,6.70
2016,04,01,08,07,6.80
2016,04,01,08,08,6.80
2016,04,01,08,09,6.80
2016,04,01,08,10,6.80
2016,04,01,08,11,6.90
2016,04,01,08,12,6.90
2016,04,01,08,13,7.00
2016,04,01,08,14,7.00
2016,04,01,08,15,7.10
2016,04,01,08,16,7.10
2016,04,01,08,17,7.10
2016,04,01,08,18,7.20
2016,04,01,08,19,7.20
2016,04,01,08,20,7.30
2016,04,01,08,21,7.40
2016,04,01,08,22,7.40
2016,04,01,08,23,7.50
2016,04,01,08,24,7.60
2016,04,01,08,25,7.60
2016,04,01,08,26,7.60
2016,04,01,08,27,7.70
2016,04,01,08,28,7.70
2016,04,01,08,29,7.80
2016,04,01,08,30,7.80
2016,04,01,08,31,7.80
2016,04,01,08,32,7.90
2016,04,01,08,33,7.90
2016,04,01,08,34,8.00
2016,04,01,08,35,8.00
2016,04,01,08,36,8.10
2016,04,01,08,37,8.10
2016,04,01,08,38,8.10
2016,04,01,08,39,8.20
2016,04,01,08,40,8.20
2016,04,01,08,41,8.30
2016,04,01,08,42,8.30
2016,04,01,08,43,8.40
2016,04,01,08,44,8.50
2016,04,01,08,45,8.50
2016,04,01,08,46,8.60
2016,04,01,08,47,8.70
2016,04,01,08,48,8.70
2016,04,01,08,49,8.70
2016,04,01,08,50,8.80
2016,04,01,08,51,8.80
2016,04,01,08,52,8.80
2016,04,01,08,53,8.80
2016,04,01,08,54,8.90
2016,04,01,08,55,9.00
2016,04,01,08,56,9.00
2016,04,01,08,57,9.00
2016,04,01,08,58,9.10
2016,04,01,08,59,9.10
2016,04,01,09,00,9.20
2016,04,01,09,01,9.20
2016,04,01,09,02,9.30
2016,04,01,09,03,9.40
2016,04,01,09,04,9.50
2016,04,01,09,05,9.60
2016,04,01,09,06,9.70
2016,04,01,09,07,9.80
2016,04,01,09,08,9.80
2016,04,01,09,09,9.90
2016,04,01,09,10,9.90
2016,04,01,09,11,10.00
2016,04,01,09,12,10.00
2016,04,01,09,13,10.10
2016,04,01,09,14,10.10
2016,04,01,09,15,10.20
2016,04,01,09,16,10.30
2016,04,01,09,17,10.30
2016,04,01,09,18,10.40
2016,04,01,09,19,10.50
2016,04,01,09,20,10.70
2016,04,01,09,21,10.80
2016,04,01,09,22,10.90
2016,04,01,09,23,11.00
2016,04,01,09,24,11.10
2016,04,01,09,25,11.20
2016,04,01,09,26,11.30
2016,04,01,09,27,11.40
2016,04,01,09,28,11.50
2016,04,01,09,29,11.50
2016,04,01,09,30,11.60
2016,04,01,09,31,11.70
2016,04,01,09,32,11.70
2016,04,01,09,33,11.80
2016,04,01,09,34,11.90
2016,04,01,09,35,12.00
2016,04,01,09,36,12.10
2016,04,01,09,37,12.10
2016,04,01,09,38,12.20
2016,04,01,09,39,12.30
2016,04,01,09,40,12.40
2016,04,01,09,41,12.50
2016,04,01,09,42,12.60
2016,04,01,09,43,12.80
2016,04,01,09,44,12.90
2016,04,01,09,45,13.00
2016,04,01,09,46,13.10
2016,04,01,09,47,13.20
2016,04,01,09,48,13.20
2016,04,01,09,49,13.30
2016,04,01,09,50,13.50
2016,04,01,09,51,13.60
2016,04,01,09,52,13.70
2016,04,01,09,53,13.80
2016,04,01,09,54,13.90
2016,04,01,09,55,13.90
2016,04,01,09,56,13.90
2016,04,01,09,57,14.00
2016,04,01,09,58,14.00
2016,04,01,09,59,14.00
2016,04,01,10,00,14.00
2016,04,01,10,01,14.10
2016,04,01,10,02,14.10
2016,04,01,10,03,14.20
2016,04,01,10,04,14.20
2016,04,01,10,05,14.20
2016,04,01,10,06,14.20
2016,04,01,10,07,14.30
2016,04,01,10,08,14.30
2016,04,01,10,09,14.30
2016,04,01,10,10,14.30
2016,04,01,10,11,14.30
2016,04,01,10,12,14.40
2016,04,01,10,13,14.40
2016,04,01,10,14,14.50
2016,04,01,10,15,14.60
2016,04,01,10,16,14.70
2016,04,01,10,17,14.80
2016,04,01,10,18,14.90
2016,04,01,10,19,15.00
2016,04,01,10,20,15.10
2016,04,01,10,21,15.20
2016,04,01,10,22,15.30
2016,04,01,10,23,15.40
2016,04,01,10,24,15.40
2016,04,01,10,25,15.50
2016,04,01,10,26,15.60
2016,04,01,10,27,15.60
2016,04,01,10,28,15.70
2016,04,01,10,29,15.80
2016,04,01,10,30,15.80
2016,04,01,10,31,15.90
2016,04,01,10,32,15.90
2016,04,01,10,33,15.90
2016,04,01,10,34,16.00
2016,04,01,10,35,16.00
2016,04,01,10,36,16.10
2016,04,01,10,37,16.10
2016,04,01,10,38,16.20
2016,04,01,10,39,16.30
2016,04,01,10,40,16.30
2016,04,01,10,41,16.30
2016,04,01,10,42,16.30
2016,04,01,10,43,16.40
2016,04,01,10,44,16.50
2016,04,01,10,45,16.50
2016,04,01,10,46,16.50
2016,04,01,10,47,16.60
2016,04,01,10,48,16.60
2016,04,01,10,49,16.70
2016,04,01,10,50,16.70
2016,04,01,10,51,16.70
2016,04,01,10,52,16.70
2016,04,01,10,53,16.80
2016,04,01,10,54,16.80
2016,04,01,10,55,16.80
2016,04,01,10,56,16.80
2016,04,01,10,57,16.80
2016,04,01,10,58,16.80
2016,04,01,10,59,16.90
2016,04,01,11,00,16.90
2016,04,01,11,01,16.90
2016,04,01,11,02,17.00
2016,04,01,11,03,17.10
2016,04,01,11,04,17.20
2016,04,01,11,05,17.20
2016,04,01,11,06,17.20
2016,04,01,11,07,17.20
2016,04,01,11,08,17.20
2016,04,01,11,09,17.30
2016,04,01,11,10,17.30
2016,04,01,11,11,17.30
2016,04,01,11,12,17.40
2016,04,01,11,13,17.40
2016,04,01,11,14,17.40
2016,04,01,11,15,17.50
2016,04,01,11,16,17.60
2016,04,01,11,17,17.60
2016,04,01,11,18,17.70
2016,04,01,11,19,17.70
2016,04,01,11,20,17.80
2016,04,01,11,21,17.80
2016,04,01,11,22,17.90
2016,04,01,11,23,17.90
2016,04,01,11,24,18.00
2016,04,01,11,25,18.00
2016,04,01,11,26,18.10
2016,04,01,11,27,18.10
2016,04,01,11,28,18.10
2016,04,01,11,29,18.10
2016,04,01,11,30,18.10
2016,04,01,11,31,18.10
2016,04,01,11,32,18.10
2016,04,01,11,33,18.20
2016,04,01,11,34,18.20
2016,04,01,11,35,18.20
2016,04,01,11,36,18.30
2016,04,01,11,37,18.30
2016,04,01,11,38,18.30
2016,04,01,11,39,18.30
2016,04,01,11,40,18.30
2016,04,01,11,41,18.30
2016,04,01,11,42,18.40
2016,04,01,11,43,18.40
2016,04,01,11,44,18.40
2016,04,01,11,45,18.30
2016,04,01,11,46,18.30
2016,04,01,11,47,18.30
2016,04,01,11,48,18.30
2016,04,01,11,49,18.30
2016,04,01,11,50,18.30
2016,04,01,11,51,18.30
2016,04,01,11,52,18.30
2016,04,01,11,53,18.30
2016,04,01,11,54,18.30
2016,04,01,11,55,18.30
2016,04,01,11,56,18.30
2016,04,01,11,57,18.30
2016,04,01,11,58,18.40
2016,04,01,11,59,18.30
2016,04,01,12,00,18.30
2016,04,01,12,01,18.30
2016,04,01,12,02,18.30
2016,04,01,12,03,18.30
2016,04,01,12,04,18.30
2016,04,01,12,05,18.30
2016,04,01,12,06,18.30
2016,04,01,12,07,18.20
2016,04,01,12,08,18.20
2016,04,01,12,09,18.20
2016,04,01,12,10,18.20
2016,04,01,12,11,18.20
2016,04,01,12,12,18.20
2016,04,01,12,13,18.20
2016,04,01,12,14,18.20
2016,04,01,12,15,18.20
2016,04,01,12,16,18.30
2016,04,01,12,17,18.30
2016,04,01,12,18,18.30
2016,04,01,12,19,18.40
2016,04,01,12,20,18.40
2016,04,01,12,21,18.30
2016,04,01,12,22,18.40
2016,04,01,12,23,18.40
2016,04,01,12,24,18.40
2016,04,01,12,25,18.50
2016,04,01,12,26,18.50
2016,04,01,12,27,18.60
2016,04,01,12,28,18.60
2016,04,01,12,29,18.60
2016,04,01,12,30,18.70
2016,04,01,12,31,18.70
2016,04,01,12,32,18.60
2016,04,01,12,33,18.60
2016,04,01,12,34,18.60
2016,04,01,12,35,18.50
2016,04,01,12,36,18.50
2016,04,01,12,37,18.50
2016,04,01,12,38,18.40
2016,04,01,12,39,18.40
2016,04,01,12,40,18.40
2016,04,01,12,41,18.40
2016,04,01,12,42,18.30
2016,04,01,12,43,18.30
2016,04,01,12,44,18.30
2016,04,01,12,45,18.30
2016,04,01,12,46,18.20
2016,04,01,12,47,18.20
2016,04,01,12,48,18.20
2016,04,01,12,49,18.10
2016,04,01,12,50,18.10
2016,04,01,12,51,18.10
2016,04,01,12,52,18.20
2016,04,01,12,53,18.20
2016,04,01,12,54,18.30
2016,04,01,12,55,18.30
2016,04,01,12,56,18.30
2016,04,01,12,57,18.30
2016,04,01,12,58,18.30
2016,04,01,12,59,18.40
2016,04,01,13,00,18.40
2016,04,01,13,01,18.30
2016,04,01,13,02,18.30
2016,04,01,13,03,18.30
2016,04,01,13,04,18.30
2016,04,01,13,05,18.30
2016,04,01,13,06,18.30
2016,04,01,13,07,18.30
2016,04,01,13,08,18.30
2016,04,01,13,09,18.30
2016,04,01,13,10,18.30
2016,04,01,13,11,18.30
2016,04,01,13,12,18.30
2016,04,01,13,13,18.40
2016,04,01,13,14,18.40
2016,04,01,13,15,18.40
2016,04,01,13,16,18.50
2016,04,01,13,17,18.60
2016,04,01,13,18,18.60
2016,04,01,13,19,18.70
2016,04,01,13,20,18.70
2016,04,01,13,21,18.80
2016,04,01,13,22,18.80
2016,04,01,13,23,18.80
2016,04,01,13,24,18.80
2016,04,01,13,25,18.80
2016,04,01,13,26,18.90
2016,04,01,13,27,18.90
2016,04,01,13,28,18.90
2016,04,01,13,29,19.00
2016,04,01,13,30,19.00
2016,04,01,13,31,19.00
2016,04,01,13,32,19.00
2016,04,01,13,33,19.00
2016,04,01,13,34,19.00
2016,04,01,13,35,19.10
2016,04,01,13,36,19.10
2016,04,01,13,37,19.10
2016,04,01,13,38,19.00
2016,04,01,13,39,19.00
2016,04,01,13,40,19.00
2016,04,01,13,41,18.90
2016,04,01,13,42,18.90
2016,04,01,13,43,18.90
2016,04,01,13,44,18.90
2016,04,01,13,45,18.90
2016,04,01,13,46,18.90
2016,04,01,13,47,18.90
2016,04,01,13,48,19.00
2016,04,01,13,49,19.00
2016,04,01,13,50,19.10
2016,04,01,13,51,19.10
2016,04,01,13,52,19.20
2016,04,01,13,53,19.20
2016,04,01,13,54,19.20
2016,04,01,13,55,19.30
2016,04,01,13,56,19.30
2016,04,01,13,57,19.40
2016,04,01,13,58,19.40
2016,04,01,13,59,19.50
2016,04,01,14,00,19.60
2016,04,01,14,01,19.60
2016,04,01,14,02,19.60
2016,04,01,14,03,19.70
2016,04,01,14,04,19.70
2016,04,01,14,05,19.70
2016,04,01,14,06,19.70
2016,04,01,14,07,19.70
2016,04,01,14,08,19.70
2016,04,01,14,09,19.70
2016,04,01,14,10,19.70
2016,04,01,14,11,19.70
2016,04,01,14,12,19.70
2016,04,01,14,13,19.70
2016,04,01,14,14,19.70
2016,04,01,14,15,19.70
2016,04,01,14,16,19.70
2016,04,01,14,17,19.70
2016,04,01,14,18,19.70
2016,04,01,14,19,19.70
2016,04,01,14,20,19.70
2016,04,01,14,21,19.70
2016,04,01,14,22,19.80
2016,04,01,14,23,19.80
2016,04,01,14,24,19.80
2016,04,01,14,25,19.80
2016,04,01,14,26,19.90
2016,04,01,14,27,19.90
2016,04,01,14,28,20.00
2016,04,01,14,29,20.00
2016,04,01,14,30,20.00
2016,04,01,14,31,20.10
2016,04,01,14,32,20.10
2016,04,01,14,33,20.20
2016,04,01,14,34,20.20
2016,04,01,14,35,20.20
2016,04,01,14,36,20.20
2016,04,01,14,37,20.30
2016,04,01,14,38,20.30
2016,04,01,14,39,20.30
2016,04,01,14,40,20.30
2016,04,01,14,41,20.40
2016,04,01,14,42,20.40
2016,04,01,14,43,20.50
2016,04,01,14,44,20.50
2016,04,01,14,45,20.50
2016,04,01,14,46,20.60
2016,04,01,14,47,20.60
2016,04,01,14,48,20.70
2016,04,01,14,49,20.70
2016,04,01,14,50,20.70
2016,04,01,14,51,20.70
2016,04,01,14,52,20.60
2016,04,01,14,53,20.60
2016,04,01,14,54,20.50
2016,04,01,14,55,20.50
2016,04,01,14,56,20.40
2016,04,01,14,57,20.40
2016,04,01,14,58,20.40
2016,04,01,14,59,20.30
2016,04,01,15,00,20.30
2016,04,01,15,01,20.30
2016,04,01,15,02,20.30
2016,04,01,15,03,20.30
2016,04,01,15,04,20.30
2016,04,01,15,05,20.30
2016,04,01,15,06,20.30
2016,04,01,15,07,20.40
2016,04,01,15,08,20.40
2016,04,01,15,09,20.40
2016,04,01,15,10,20.50
2016,04,01,15,11,20.50
2016,04,01,15,12,20.50
2016,04,01,15,13,20.50
2016,04,01,15,14,20.40
2016,04,01,15,15,20.30
2016,04,01,15,16,20.30
2016,04,01,15,17,20.20
2016,04,01,15,18,20.20
2016,04,01,15,19,20.20
2016,04,01,15,20,20.20
2016,04,01,15,21,20.10
2016,04,01,15,22,20.10
2016,04,01,15,23,20.00
2016,04,01,15,24,20.00
2016,04,01,15,25,20.00
2016,04,01,15,26,20.00
2016,04,01,15,27,20.00
2016,04,01,15,28,20.00
2016,04,01,15,29,20.00
2016,04,01,15,30,20.00
2016,04,01,15,31,20.00
2016,04,01,15,32,20.10
2016,04,01,15,33,20.10
2016,04,01,15,34,20.20
2016,04,01,15,35,20.20
2016,04,01,15,36,20.30
2016,04,01,15,37,20.30
2016,04,01,15,38,20.40
2016,04,01,15,39,20.40
2016,04,01,15,40,20.40
2016,04,01,15,41,20.40
2016,04,01,15,42,20.30
2016,04,01,15,43,20.30
2016,04,01,15,44,20.30
2016,04,01,15,45,20.30
2016,04,01,15,46,20.30
2016,04,01,15,47,20.30
2016,04,01,15,48,20.30
2016,04,01,15,49,20.30
2016,04,01,15,50,20.40
2016,04,01,15,51,20.30
2016,04,01,15,52,20.30
2016,04,01,15,53,20.30
2016,04,01,15,54,20.30
2016,04,01,15,55,20.40
2016,04,01,15,56,20.30
2016,04,01,15,57,20.30
2016,04,01,15,58,20.30
2016,04,01,15,59,20.40
2016,04,01,16,00,20.40
2016,04,01,16,01,20.30
2016,04,01,16,02,20.40
2016,04,01,16,03,20.40
2016,04,01,16,04,20.40
2016,04,01,16,05,20.40
2016,04,01,16,06,20.40
2016,04,01,16,07,20.40
2016,04,01,16,08,20.40
2016,04,01,16,09,20.50
2016,04,01,16,10,20.50
2016,04,01,16,11,20.60
2016,04,01,16,12,20.60
2016,04,01,16,13,20.60
2016,04,01,16,14,20.60
2016,04,01,16,15,20.60
2016,04,01,16,16,20.70
2016,04,01,16,17,20.70
2016,04,01,16,18,20.70
2016,04,01,16,19,20.70
2016,04,01,16,20,20.70
2016,04,01,16,21,20.70
2016,04,01,16,22,20.60
2016,04,01,16,23,20.60
2016,04,01,16,24,20.60
2016,04,01,16,25,20.60
2016,04,01,16,26,20.60
2016,04,01,16,27,20.60
2016,04,01,16,28,20.60
2016,04,01,16,29,20.60
2016,04,01,16,30,20.50
2016,04,01,16,31,20.50
2016,04,01,16,32,20.40
2016,04,01,16,33,20.40
2016,04,01,16,34,20.40
2016,04,01,16,35,20.30
2016,04,01,16,36,20.30
2016,04,01,16,37,20.30
2016,04,01,16,38,20.20
2016,04,01,16,39,20.20
2016,04,01,16,40,20.10
2016,04,01,16,41,20.10
2016,04,01,16,42,20.10
2016,04,01,16,43,20.10
2016,04,01,16,44,20.10
2016,04,01,16,45,20.10
2016,04,01,16,46,20.10
2016,04,01,16,47,20.10
2016,04,01,16,48,20.10
2016,04,01,16,49,20.10
2016,04,01,16,50,20.20
2016,04,01,16,51,20.20
2016,04,01,16,52,20.20
2016,04,01,16,53,20.20
2016,04,01,16,54,20.20
2016,04,01,16,55,20.30
2016,04,01,16,56,20.30
2016,04,01,16,57,20.30
2016,04,01,16,58,20.30
2016,04,01,16,59,20.40
2016,04,01,17,00,20.40
2016,04,01,17,01,20.40
2016,04,01,17,02,20.40
2016,04,01,17,03,20.40
2016,04,01,17,04,20.40
2016,04,01,17,05,20.40
2016,04,01,17,06,20.30
2016,04,01,17,07,20.40
2016,04,01,17,08,20.40
2016,04,01,17,09,20.40
2016,04,01,17,10,20.40
2016,04,01,17,11,20.40
2016,04,01,17,12,20.40
2016,04,01,17,13,20.50
2016,04,01,17,14,20.50
2016,04,01,17,15,20.50
2016,04,01,17,16,20.50
2016,04,01,17,17,20.50
2016,04,01,17,18,20.50
2016,04,01,17,19,20.50
2016,04,01,17,20,20.60
2016,04,01,17,21,20.60
2016,04,01,17,22,20.60
2016,04,01,17,23,20.70
2016,04,01,17,24,20.70
2016,04,01,17,25,20.70
2016,04,01,17,26,20.80
2016,04,01,17,27,20.80
2016,04,01,17,28,20.80
2016,04,01,17,29,20.80
2016,04,01,17,30,20.90
2016,04,01,17,31,20.90
2016,04,01,17,32,20.90
2016,04,01,17,33,20.90
2016,04,01,17,34,20.90
2016,04,01,17,35,21.00
2016,04,01,17,36,21.00
2016,04,01,17,37,21.00
2016,04,01,17,38,21.00
2016,04,01,17,39,21.00
2016,04,01,17,40,21.10
2016,04,01,17,41,21.10
2016,04,01,17,42,21.10
2016,04,01,17,43,21.10